Regional Weather Roundup
Issued by NWS

Current Version | Previous Version | Graphics & Text | Print | Product List | Glossary On
Versions: 1 2 3 4 5 6 7 8 9 10 11 12 13 14 15 16 17 18 19 20 21 22 23 24 25 26 27 28 29 30 31 32 33 34 35 36 37 38 39 40 41 42 43 44 45 46 47 48 49 50
000
ASHW40 PHFO 060510
RWRHI

WEATHER ROUNDUP FOR HAWAII
NATIONAL WEATHER SERVICE HONOLULU HI
700 PM HST SUN JUL 05 2015

THIS IS AN AUTOMATED REPORT THAT HAS NOT BEEN QUALITY CONTROLLED.

NOTE..."FAIR" INDICATES FEW OR NO CLOUDS BELOW 12,000 FEET WITH NO
SIGNIFICANT WEATHER AND/OR OBSTRUCTIONS TO VISIBILITY.

* - THESE SITES REPORT LIMITED FIELDS

HIZ001>004-060600-
KAUAI-NIIHAU-

CITY           SKY/WX    TMP DP  RH WIND       PRES   REMARKS
LIHUE APT      CLEAR     79  69  71 NE12      29.99R
PORT ALLEN*    NOT AVBL
POIPU*           N/A     81 N/A N/A NE7G14      N/A
PRINCEVILLE*     N/A     79 N/A N/A MISG        N/A
KOKOLE POINT*  NOT AVBL
MOLOAA DAIRY*  NOT AVBL
WAIMEA HTS*    NOT AVBL
PUU OPAE*      NOT AVBL
PUU LUA*       NOT AVBL
MAKAHA RIDGE*  NOT AVBL
$$

HIZ005>011-060600-
OAHU-

CITY           SKY/WX    TMP DP  RH WIND       PRES   REMARKS
HONOLULU       PTCLDY    82  67  60 NE13      29.96R
KALAELOA       CLEAR     81  65  58 VRB6      29.97R
KANEOHE MCB    PTCLDY    80  70  71 NE8       29.95R
WHEELER FIELD  FAIR      78  65  64 E9        29.97R
BELLOWS*       NOT AVBL
KAHUKU*        NOT AVBL
WHEELER*       NOT AVBL
WAIANAE HARBOR NOT AVBL
DILLINGHAM*      N/A     84  68  58 MISG        N/A
KAHUKU TRN*      N/A     79  70  73 E6G17       N/A
KAWAILOA*        N/A     75  66  73 E5G15       N/A
KII*             N/A     81  72  74 E13         N/A
MAKUA RANGE*     N/A     82  64  54 NE12G18     N/A
OAHU FOREST NW NOT AVBL
SCHOFIELD BRK*   N/A     84  72  65 MISG        N/A
SCHOFIELD S*   NOT AVBL
WAIANAE VLY*   NOT AVBL
KUAOKALA*      NOT AVBL
HONOULIUULI*   NOT AVBL
MOKUOLOE IS*   NOT AVBL
PALEHUA*       NOT AVBL
WAIAWA PHB*    NOT AVBL
$$

HIZ012>013-060600-
MOLOKAI-

CITY           SKY/WX    TMP DP  RH WIND       PRES   REMARKS
MOLOKAI AIRPT  CLEAR     78  68  71 NE12      29.97R
KALAUPAPA      NOT AVBL
MAKAPULAPAI*   NOT AVBL
MOLOKAI 1*     NOT AVBL
PUU ALII*      NOT AVBL
$$

HIZ016-060600-
KAHOOLAWE-

CITY           SKY/WX    TMP DP  RH WIND       PRES   REMARKS
KAHOOLAWE*     NOT AVBL
HAKIOAWA*      NOT AVBL
HONOKANAIA*      N/A     80  66  63 NE12G22   29.97R
KANELOA*         N/A     79  68  69 NE15G26   30.01S
KEALIALALO*    NOT AVBL
LUA MAKIKA*    NOT AVBL
$$

HIZ014>015-060600-
LANAI-

CITY           SKY/WX    TMP DP  RH WIND       PRES   REMARKS
LANAI CITY     FAIR      73  66  78 NE17      30.01R
LANAI 1*       NOT AVBL
$$

HIZ017>028-060600-
MAUI-

CITY           SKY/WX    TMP DP  RH WIND       PRES   REMARKS
KAHULUI        PTCLDY    80  68  66 NE13      29.96R
KAPALUA-W MAUI NOT AVBL
HANA AIRPORT   PTCLDY    77  68  73 CALM      30.01R
HANA*          NOT AVBL
HALEAKALA SUMM   N/A     46  25  42 NE23        N/A
MAALAEA BAY*   NOT AVBL
HALEAKALA*     NOT AVBL
KAUPO GAP*     NOT AVBL
KULA 1*          N/A     57  56  97 N2G9        N/A
$$

HIZ023>026-060600-
BIG ISLAND OF HAWAII COAST AND LOWER SLOPES-

CITY           SKY/WX    TMP DP  RH WIND       PRES   REMARKS
KAILUA KONA    CLEAR     82  70  66 S6        29.92R
HILO           CLOUDY    79  70  74 N5        29.97R
HONOKAA*       NOT AVBL
KAWAIHAE MWT*  NOT AVBL
KAWAIHAE*        N/A     82 N/A N/A NW3         N/A
SOUTH POINT*   NOT AVBL
UPOLU AIRPORT* NOT AVBL
KAMUELA*       CLOUDY    66  64  94 NE8       30.07S
HAKALAU*         N/A     55  54  97 NE3         N/A
KALOKO-HONOKO* NOT AVBL
PALI 2*          N/A     66  59  77 NE17G31     N/A
KEALAKOMO*       N/A     66  50  55 NE15G25     N/A
KAUPULEHU*     NOT AVBL
KAPAPALA*        N/A     71  68  91 W3G12       N/A
LOWER KAHUKU*  NOT AVBL
PUHE CS*       NOT AVBL
PUHO CS*       NOT AVBL
PTA KEAMUKU*     N/A     64  57  77 CALM        N/A
WAIKOLOA*      NOT AVBL
$$

HIZ027>028-060600-
BIG ISLAND OF HAWAII INTERIOR AND SUMMMITS-

CITY           SKY/WX    TMP DP  RH WIND       PRES   REMARKS
BRADSHAW FIELD MOCLDY    60  56  87 W5        30.28R
MK VISITOR CEN   N/A      0   0 100 MISG        N/A
MAUNA KEA*       N/A     39  -9  12 E8          N/A
MAUNA LOA*       N/A     50   5  16 MISG        N/A
MAUNA LOA 1*   NOT AVBL
PTA KIPUKA*      N/A     73  70  88 NW6G13      N/A
PTA RANGE 17*    N/A     61  55  82 W5G15       N/A
PTA WEST*      NOT AVBL
NENE CABIN*    NOT AVBL
AHUMOA*        NOT AVBL
PTA PORTABLE*  NOT AVBL
PUU MALI*        N/A    N/A N/A N/A E10G18      N/A
$$

HIC003-060600-
NORTHWEST ISLANDS-

CITY           SKY/WX    TMP DP  RH WIND       PRES   REMARKS
MIDWAY ISLAND  PTSUNNY   81  66  61 NE7       29.99S
MIDWAY NOS*    NOT AVBL
FRENCH FRIGATE NOT AVBL
$$

PHZ110>124-180-060600-
BUOY REPORTS

STATION/POSITION TIME  TEMP    WIND        PRES    WAVE   SWELL
                       AIR SEA DIR/SP/G            HT/PER HT/DIR
                 (UTC) (F)     (DEG/KT/KT) (MB)    (FT/S) (FT/D)
BUOY 51001       NOT AVBL
BUOY 51101       0500   81 80  130/  8/ 10 1015.1R   5/13   5/180
BUOY 51100       NOT AVBL
BUOY 51002       0500   80 81   80/ 12/ 14 1012.6R   6/16   5/200
BUOY 51003       0400   81 82   60/ 10/ 12 1013.1S   6/17   5
BUOY 51004       0423   79 80   50/ 14/ 17 1012.5R   6/17   5/230
BARBERS PT BUOY  NOT AVBL
WAIMEA BAY BUOY  0500      80                N/A     2/11   2/320
KAILUA BAY BUOY  0500      80                N/A     4/ 8   2/160
LANAI BUOY       NOT AVBL
BARBERS PT 2     0500      80                N/A     4/12   3/190
PAUWELA MAUI     0400      79                N/A     4/ 8   2/320
HILO             0500      80                N/A     4/ 9   2/110
KANEOHE BAY BUOY 0500      79                N/A     3/ 7
HANALEI KAUAI    0500      80                N/A     4/11   2/310
KAHULUI HARBOR   0500   79 83   50/  6/ 12 1014.5R
HONOLULU HARBOR  0500   81 81   60/  6/ 10 1014.5R
KILO NALU        NOT AVBL
HILO HARBOR      0500   78 79   10/  7/  8 1014.3R
MOKUOLOE         0500   80 83   60/  8/ 10 1014.9S
NAWILIWILI       0500   79 82   40/  8/ 11 1015.1R
WHOTS BUOY       NOT AVBL
BUOY 51028       NOT AVBL
$$

......................KEY........................................
  SKY/WX - SKY CONDITIONS/PRESENT WEATHER
  TMP    - TEMPERATURE IN FAHRENHEIT
  DWPT   - DEWPOINT IN FAHRENHEIT
  RH     - RELATIVE HUMIDITY IN PERCENT
  WIND   - DIRECTION AND SPEED /MPH FOR ISLANDS...KTS FOR BUOYS/
  PRES   - MEAN SEA LEVEL PRESSURE IN INCHES OF HG
  VSB    - VISIBILITY IN MILES
  HX     - HEAT INDEX
  WCI    - WIND CHILL INDEX
  VRB    - VARIABLE WIND DIRECTION
  N/A    - NOT AVAILABLE


USA.gov is the U.S. government's official web portal to all federal, state and local government web resources and services.